Location: Unspecified
(0.0000°N, 0.0000°E)
Time: 05:53:28
(UTC+00:00)

Vanguard 2 Rocket - Pass Details

Date: 10 October 2023
Orbit: 552 x 3312 km, 32.9° (Epoch: 06 December)

Event Time Altitude Azimuth Distance (km) Brightness Sun altitude
Rises 10:27:08 0° 321° (NW) 5,796 10.8 69.0°
Reaches altitude 10° 10:32:53 10° 339° (NNW) 5,288 10.8 70.3°
Maximum altitude 10:43:00 18° 17° (NNE) 5,243 11.0 72.7°
Drops below altitude 10° 10:54:44 10° 54° (NE) 6,253 11.4 75.4°
Sets 11:02:35 0° 71° (ENE) 7,244 11.6 77.1°
